DW9493 Weather Reports


Display with metric or nautical units.
time (UTC)temp
F
wind
direction
speed
MPH
gust
MPH
rain 1hr
in
rain 24hr
in
rain mn
in
humidity
%
barometer
mb
20260902104439 53 315 1.0 4.0 0.00 0.00 0.00 69 1025.6
20260902103439 52 269 0.0 2.0 0.00 0.00 0.00 72 1025.6
20260902102438 51 250 0.0 1.0 0.00 0.00 0.00 75 1025.6
20260902101440 51 284 0.0 1.0 0.00 0.00 0.00 75 1025.5
20260902100438 51 315 0.0 3.0 0.00 0.00 0.00 76 1025.6
20260902095423 51 208 0.0 1.0 0.00 0.00 0.00 73 1025.8
20260902094420 52 265 0.0 0.0 0.00 0.00 0.00 73 1025.8
20260902093422 52 266 0.0 1.0 0.00 0.00 0.00 74 1025.8
20260902092421 53 252 0.0 1.0 0.00 0.00 0.00 71 1025.9
20260902091420 53 257 0.0 1.0 0.00 0.00 0.00 70 1025.9
20260902090421 53 242 0.0 1.0 0.00 0.00 0.00 70 1025.8
20260902085419 53 215 0.0 1.0 0.00 0.00 0.00 69 1025.9
20260902084859 53 259 0.0 1.0 0.00 0.00 0.00 70 1025.8
20260902083415 53 259 0.0 1.0 0.00 0.00 0.00 70 1025.9
20260902082415 53 260 0.0 1.0 0.00 0.00 0.00 70 1025.9
20260902081415 53 260 0.0 0.0 0.00 0.00 0.00 69 1025.9
20260902080411 54 260 0.0 0.0 0.00 0.01 0.00 67 1026.0
20260902075902 53 260 0.0 0.0 0.00 0.01 0.00 68 1025.9
20260902074411 54 260 0.0 1.0 0.00 0.01 0.00 66 1025.9
20260902073411 55 260 0.0 1.0 0.00 0.01 0.00 65 1025.8
20260902072353 54 276 0.0 0.0 0.00 0.02 0.00 65 1025.9
20260902071349 54 271 0.0 1.0 0.00 0.02 0.00 65 1025.9
20260902070349 55 272 0.0 1.0 0.00 0.02 0.00 65 1025.9
20260902065349 54 255 0.0 0.0 0.00 0.02 0.00 67 1026.0
20260902064349 54 255 0.0 1.0 0.00 0.03 0.00 66 1026.0
20260902063348 55 255 0.0 0.0 0.00 0.05 0.00 67 1026.0
20260902062825 55 255 0.0 1.0 0.00 0.08 0.00 64 1026.0
20260902061823 56 255 0.0 1.0 0.00 0.08 0.00 63 1026.0
20260902060349 56 311 0.0 2.0 0.00 0.08 0.00 65 1025.9
20260902055348 55 325 0.0 2.0 0.00 0.08 0.08 65 1026.0
20260902054347 55 308 0.0 1.0 0.00 0.08 0.08 67 1026.0
20260902053347 56 308 0.0 1.0 0.00 0.08 0.08 66 1026.0
20260902052347 56 288 0.0 1.0 0.00 0.08 0.08 65 1026.0
20260902051347 56 319 0.0 1.0 0.00 0.08 0.08 65 1025.9
20260902050825 58 319 0.0 1.0 0.00 0.08 0.08 62 1025.9
20260902045318 58 319 0.0 2.0 0.00 0.08 0.08 62 1026.0
20260902044318 59 319 1.0 3.0 0.00 0.08 0.08 60 1026.0
20260902043317 59 295 0.0 3.0 0.00 0.08 0.08 61 1026.1
20260902042317 58 287 0.0 2.0 0.00 0.08 0.08 62 1026.3
20260902041317 59 267 1.0 4.0 0.00 0.08 0.08 61 1026.3
20260902040317 59 311 4.0 9.0 0.00 0.08 0.08 61 1026.3
20260902035248 57 291 0.0 1.0 0.00 0.08 0.08 65 1026.3
20260902034247 58 291 0.0 1.0 0.00 0.08 0.08 64 1026.3
20260902034220 58 319 1.0 3.0 0.00 0.08 0.08 65 1026.3
20260902032247 58 313 1.0 3.0 0.00 0.08 0.08 66 1026.0
20260902031247 58 308 0.0 3.0 0.00 0.08 0.08 66 1026.0
20260902031206 57 323 0.0 2.0 0.00 0.08 0.08 68 1026.1
20260902025245 57 280 0.0 1.0 0.00 0.08 0.08 70 1026.0
20260902024245 58 267 0.0 1.0 0.00 0.08 0.08 66 1025.9
20260902023247 57 256 0.0 1.0 0.00 0.09 0.08 67 1025.9
20260902022246 58 285 0.0 1.0 0.00 0.10 0.08 67 1025.6
20260902021246 59 291 0.0 1.0 0.00 0.11 0.08 64 1025.4
20260902020246 60 319 0.0 0.0 0.00 0.11 0.08 62 1025.4
20260902015243 62 319 0.0 1.0 0.00 0.11 0.08 61 1025.2
20260902014241 63 319 0.0 1.0 0.00 0.11 0.08 61 1025.2
20260902013241 65 319 0.0 2.0 0.00 0.11 0.08 56 1025.2
20260902012241 66 245 1.0 2.0 0.00 0.11 0.08 52 1025.2
20260902011720 65 257 0.0 3.0 0.00 0.11 0.08 57 1025.4
20260902010723 65 333 0.0 1.0 0.00 0.11 0.08 60 1025.4
20260902005716 65 333 0.0 1.0 0.00 0.11 0.08 63 1025.2
20260902004240 68 333 0.0 1.0 0.00 0.11 0.08 57 1025.2
20260902003218 70 333 0.0 1.0 0.00 0.11 0.08 47 1025.2
20260902002151 71 70 0.0 1.0 0.00 0.11 0.08 42 1025.2
20260902001149 71 70 0.0 1.0 0.00 0.11 0.08 41 1025.1
20260902000149 71 318 0.0 2.0 0.00 0.11 0.08 41 1025.2
20260901235149 71 79 0.0 2.0 0.00 0.11 0.08 39 1025.1
20260901234637 72 32 0.0 2.0 0.00 0.11 0.08 39 1025.1
20260901233148 72 81 0.0 4.0 0.00 0.11 0.08 39 1025.1
20260901232128 71 56 0.0 3.0 0.00 0.11 0.08 40 1025.1
20260901231118 71 86 1.0 3.0 0.00 0.11 0.08 40 1025.0
20260901230039 71 52 2.0 7.0 0.00 0.11 0.08 38 1025.0
20260901225039 73 17 1.0 5.0 0.00 0.11 0.08 39 1025.0
20260901224039 73 34 0.0 3.0 0.00 0.11 0.08 38 1025.0
20260901223040 73 314 1.0 4.0 0.00 0.11 0.08 33 1025.0
20260901222039 72 331 1.0 3.0 0.00 0.11 0.08 34 1025.0
20260901221040 73 318 1.0 5.0 0.00 0.11 0.08 35 1025.1
20260901220037 73 0 2.0 8.0 0.00 0.11 0.08 36 1025.2
20260901215037 72 305 3.0 11.0 0.00 0.11 0.08 36 1025.5
20260901214038 73 307 5.0 13.0 0.00 0.11 0.08 34 1025.4
20260901213038 73 330 6.0 13.0 0.00 0.11 0.08 35 1025.5
20260901212038 73 328 5.0 13.0 0.00 0.11 0.08 36 1025.6
20260901211037 73 322 4.0 13.0 0.00 0.11 0.08 37 1025.6
20260901210037 73 216 4.0 10.0 0.00 0.11 0.08 37 1025.9
20260901205019 74 79 0.0 6.0 0.00 0.11 0.08 38 1025.6
20260901204915 73 354 2.0 7.0 0.00 0.11 0.08 38 1025.6
20260901202957 72 312 3.0 11.0 0.00 0.11 0.08 39 1025.6
20260901201957 72 32 3.0 11.0 0.00 0.11 0.08 39 1025.6
20260901200957 74 49 3.0 8.0 0.00 0.11 0.08 38 1025.6
20260901195957 73 359 2.0 9.0 0.00 0.11 0.08 38 1025.8
20260901194959 73 354 4.0 9.0 0.00 0.11 0.08 37 1025.9
20260901193950 73 338 1.0 4.0 0.00 0.11 0.08 37 1025.8
20260901192950 73 245 2.0 10.0 0.00 0.11 0.08 34 1025.8
20260901191951 73 318 3.0 11.0 0.00 0.11 0.08 34 1025.9
20260901190951 73 302 0.0 2.0 0.00 0.11 0.08 37 1026.0
20260901185952 73 150 2.0 6.0 0.00 0.11 0.08 37 1026.1
20260901184949 73 91 1.0 6.0 0.00 0.11 0.08 39 1026.3
20260901183948 74 56 0.0 2.0 0.00 0.11 0.08 40 1026.3
20260901182947 74 56 1.0 7.0 0.00 0.11 0.08 35 1026.3
20260901181948 73 333 4.0 9.0 0.00 0.11 0.08 32 1026.3
20260901181428 72 345 2.0 8.0 0.00 0.11 0.08 34 1026.4
20260901180421 72 44 1.0 8.0 0.00 0.11 0.08 34 1026.5
20260901174945 71 96 0.0 1.0 0.00 0.11 0.08 36 1026.5
20260901173942 72 32 0.0 3.0 0.00 0.11 0.08 36 1026.8
20260901172943 72 320 2.0 6.0 0.00 0.11 0.08 35 1026.8
20260901171942 72 36 2.0 7.0 0.00 0.11 0.08 37 1026.9
20260901170945 72 118 2.0 5.0 0.00 0.11 0.08 39 1026.9
20260901170407 72 203 1.0 5.0 0.00 0.11 0.08 36 1026.9
20260901164916 71 103 1.0 6.0 0.00 0.11 0.08 39 1027.0
20260901163916 71 12 1.0 6.0 0.00 0.11 0.08 39 1027.0
20260901162916 71 358 0.0 5.0 0.00 0.11 0.08 42 1026.9
20260901161915 69 146 0.0 4.0 0.00 0.11 0.08 47 1026.9
20260901160914 67 347 0.0 2.0 0.00 0.11 0.08 56 1027.0
20260901155902 65 120 1.0 6.0 0.00 0.11 0.08 64 1027.1
20260901154902 62 285 4.0 7.0 0.00 0.11 0.08 69 1027.0
20260901153901 61 313 4.0 10.0 0.00 0.11 0.08 70 1027.1
20260901153345 59 335 5.0 8.0 0.00 0.11 0.08 74 1027.1
20260901151901 58 313 4.0 8.0 0.00 0.11 0.08 75 1027.1
20260901150902 57 335 1.0 5.0 0.00 0.11 0.08 77 1027.1
20260901150348 56 252 0.0 2.0 0.00 0.11 0.08 85 1027.0
20260901144859 55 50 0.0 1.0 0.00 0.11 0.08 90 1027.0
20260901143859 54 50 0.0 2.0 0.00 0.11 0.08 90 1027.0
20260901142859 53 195 0.0 1.0 0.00 0.11 0.08 93 1027.0
20260901141855 53 195 0.0 1.0 0.00 0.11 0.08 92 1027.0
20260901140855 52 315 0.0 1.0 0.00 0.11 0.08 92 1026.9
20260901140817 52 315 0.0 1.0 0.00 0.11 0.08 92 1027.0
20260901134855 52 315 0.0 0.0 0.00 0.11 0.08 90 1026.9
20260901133855 52 315 0.0 2.0 0.00 0.11 0.08 90 1026.8
20260901132856 52 315 1.0 3.0 0.00 0.11 0.08 91 1026.8
20260901131853 51 317 0.0 2.0 0.00 0.11 0.08 91 1026.5
20260901130854 51 317 0.0 2.0 0.00 0.11 0.08 92 1026.4
20260901125855 51 295 1.0 4.0 0.00 0.11 0.08 93 1026.1
20260901124850 51 316 1.0 4.0 0.00 0.11 0.08 93 1026.0
20260901123845 51 321 0.0 2.0 0.00 0.11 0.08 94 1026.0
20260901122845 51 295 0.0 3.0 0.00 0.11 0.08 94 1025.8
20260901121845 51 312 1.0 3.0 0.00 0.11 0.08 95 1025.6
20260901120840 51 315 0.0 3.0 0.00 0.11 0.08 95 1025.6
20260901115839 51 326 0.0 2.0 0.00 0.11 0.08 95 1025.6
20260901114839 51 326 0.0 0.0 0.00 0.11 0.08 94 1025.8
20260901113839 51 326 0.0 1.0 0.00 0.11 0.08 94 1025.6
20260901113318 51 326 1.0 3.0 0.00 0.11 0.08 94 1025.8
20260901111836 51 304 1.0 3.0 0.00 0.11 0.08 94 1025.8
20260901110838 51 319 1.0 4.0 0.00 0.11 0.08 95 1025.6
20260901105833 51 313 0.0 2.0 0.00 0.11 0.08 95 1025.8
20260901104834 51 314 0.0 1.0 0.00 0.11 0.08 95 1025.9